Location: Unspecified
(35.6961°N, 0.0000°E)
Time: 09:19:53
(UTC+00:00)

S-56A Canister/Altair - Pass Details

Date: 05 June 2019
Orbit: 633 x 2499 km, 38.9° (Epoch: 23 June)

Event Time Altitude Azimuth Distance (km) Brightness Sun altitude
Rises 22:48:53 0° 270° (W) 2,919 10.7 -29.4°
Reaches altitude 10° 22:51:06 10° 274° (W) 2,012 9.9 -29.6°
Enters shadow 22:52:57 25° 282° (WNW) 1,312 8.9 -29.7°
Maximum altitude 22:55:30 61° 355° (N) 772 - -29.8°
Drops below altitude 10° 23:00:49 10° 77° (ENE) 2,421 - -30.1°
Exits shadow 23:03:11 - 80° (E) 3,359 10.8 -30.3°
Sets 23:03:45 0° 81° (E) 3,580 10.9 -30.3°
